Time,TemperatureF,DewpointF,PressureIn,WindDirection,WindDirectionDegrees,WindSpeedMPH,WindSpeedGustMPH,Humidity,HourlyPrecipIn,Conditions,Clouds,dailyrainin,SoftwareType,DateUTC
2013-08-07 00:05:00,68.7,68.4,30.02,West,276,0.0,0.0,99,0.00,,,0.00,Wunderground v.1.15,2013-08-07 04:05:00,
2013-08-07 00:10:00,68.6,68.3,30.03,West,276,0.0,0.0,99,0.00,,,0.00,Wunderground v.1.15,2013-08-07 04:10:00,
2013-08-07 00:15:00,68.5,68.2,30.02,West,276,0.0,0.0,99,0.00,,,0.00,Wunderground v.1.15,2013-08-07 04:15:00,
2013-08-07 00:20:00,68.4,68.1,30.02,West,276,0.0,0.0,99,0.00,,,0.00,Wunderground v.1.15,2013-08-07 04:20:00,
2013-08-07 00:25:00,68.4,68.1,30.02,West,276,0.0,0.0,99,0.00,,,0.00,Wunderground v.1.15,2013-08-07 04:25:00,
2013-08-07 00:30:00,68.4,68.1,30.02,West,276,0.0,0.0,99,0.00,,,0.00,Wunderground v.1.15,2013-08-07 04:30:00,
2013-08-07 00:35:00,68.3,68.0,30.02,West,276,0.0,0.0,99,0.00,,,0.00,Wunderground v.1.15,2013-08-07 04:35:00,
2013-08-07 00:45:00,68.3,68.0,30.02,West,276,0.0,0.0,99,0.00,,,0.00,Wunderground v.1.15,2013-08-07 04:45:00,
2013-08-07 00:50:00,68.2,67.9,30.02,West,276,0.0,0.0,99,0.00,,,0.00,Wunderground v.1.15,2013-08-07 04:50:00,
2013-08-07 00:55:00,68.2,67.9,30.02,West,276,0.0,0.0,99,0.00,,,0.00,Wunderground v.1.15,2013-08-07 04:55:00,
2013-08-07 01:05:00,68.1,67.8,30.02,West,276,0.0,0.0,99,0.00,,,0.00,Wunderground v.1.15,2013-08-07 05:05:00,
2013-08-07 01:10:00,68.0,67.7,30.02,West,276,0.0,0.0,99,0.00,,,0.00,Wunderground v.1.15,2013-08-07 05:10:00,
2013-08-07 01:15:00,68.0,67.7,30.02,West,276,0.0,0.0,99,0.00,,,0.00,Wunderground v.1.15,2013-08-07 05:15:00,
2013-08-07 01:25:00,67.9,67.6,30.02,West,276,0.0,0.0,99,0.00,,,0.00,Wunderground v.1.15,2013-08-07 05:25:00,
2013-08-07 01:30:00,67.9,67.6,30.02,West,276,0.0,0.0,99,0.00,,,0.00,Wunderground v.1.15,2013-08-07 05:30:00,
2013-08-07 01:40:00,68.0,67.7,30.02,West,276,0.0,0.0,99,0.00,,,0.00,Wunderground v.1.15,2013-08-07 05:40:00,
2013-08-07 01:45:00,68.1,68.1,30.02,West,276,0.0,0.0,100,0.00,,,0.00,Wunderground v.1.15,2013-08-07 05:45:00,
2013-08-07 01:50:00,68.1,68.1,30.02,West,276,0.0,0.0,100,0.00,,,0.00,Wunderground v.1.15,2013-08-07 05:50:00,
2013-08-07 02:00:00,68.2,68.2,30.02,West,276,0.0,0.0,100,0.00,,,0.00,Wunderground v.1.15,2013-08-07 06:00:00,
2013-08-07 02:05:00,68.3,68.3,30.02,West,276,0.0,0.0,100,0.00,,,0.00,Wunderground v.1.15,2013-08-07 06:05:00,
2013-08-07 02:10:00,68.3,68.3,30.01,West,276,0.0,0.0,100,0.00,,,0.00,Wunderground v.1.15,2013-08-07 06:10:00,
2013-08-07 02:20:00,68.5,68.5,30.02,West,276,0.0,0.0,100,0.00,,,0.00,Wunderground v.1.15,2013-08-07 06:20:00,
2013-08-07 02:25:00,68.5,68.5,30.02,West,276,0.0,0.0,100,0.00,,,0.00,Wunderground v.1.15,2013-08-07 06:25:00,
2013-08-07 02:30:00,68.6,68.6,30.02,West,276,0.0,0.0,100,0.00,,,0.00,Wunderground v.1.15,2013-08-07 06:30:00,
2013-08-07 02:40:00,68.6,68.6,30.02,West,276,0.0,0.0,100,0.00,,,0.00,Wunderground v.1.15,2013-08-07 06:40:00,
2013-08-07 02:45:00,68.7,68.7,30.02,West,276,0.0,0.0,100,0.00,,,0.00,Wunderground v.1.15,2013-08-07 06:45:00,
2013-08-07 02:50:00,68.6,68.6,30.02,West,276,0.0,0.0,100,0.00,,,0.00,Wunderground v.1.15,2013-08-07 06:50:00,
2013-08-07 03:00:00,68.7,68.7,30.02,West,276,0.0,0.0,100,0.00,,,0.00,Wunderground v.1.15,2013-08-07 07:00:00,
2013-08-07 03:05:00,68.8,68.8,30.02,West,276,0.0,0.0,100,0.00,,,0.00,Wunderground v.1.15,2013-08-07 07:05:00,
2013-08-07 03:10:00,68.8,68.8,30.02,West,276,0.0,0.0,100,0.00,,,0.00,Wunderground v.1.15,2013-08-07 07:10:00,
2013-08-07 03:20:00,68.8,68.8,30.02,West,276,0.0,0.0,100,0.00,,,0.00,Wunderground v.1.15,2013-08-07 07:20:00,
2013-08-07 03:25:00,68.9,68.9,30.02,West,276,0.0,0.0,100,0.00,,,0.00,Wunderground v.1.15,2013-08-07 07:25:00,
2013-08-07 03:30:00,68.9,68.9,30.02,West,276,0.0,0.0,100,0.00,,,0.00,Wunderground v.1.15,2013-08-07 07:30:00,
2013-08-07 03:40:00,68.9,68.9,30.02,West,276,0.0,0.0,100,0.00,,,0.00,Wunderground v.1.15,2013-08-07 07:40:00,
2013-08-07 03:45:00,69.0,69.0,30.02,West,276,0.0,0.0,100,0.00,,,0.00,Wunderground v.1.15,2013-08-07 07:45:00,
2013-08-07 03:50:00,69.0,69.0,30.02,West,276,0.0,0.0,100,0.00,,,0.00,Wunderground v.1.15,2013-08-07 07:50:00,
2013-08-07 04:00:00,69.0,69.0,30.03,West,276,0.0,0.0,100,0.00,,,0.00,Wunderground v.1.15,2013-08-07 08:00:00,
2013-08-07 04:05:00,69.1,69.1,30.02,West,276,0.0,0.0,100,0.00,,,0.00,Wunderground v.1.15,2013-08-07 08:05:00,
2013-08-07 04:10:00,69.1,69.1,30.02,West,276,0.0,0.0,100,0.00,,,0.00,Wunderground v.1.15,2013-08-07 08:10:00,
2013-08-07 04:15:00,69.0,69.0,30.02,West,276,0.0,0.0,100,0.00,,,0.00,Wunderground v.1.15,2013-08-07 08:15:00,
2013-08-07 04:25:00,69.0,69.0,30.02,West,276,0.0,0.0,100,0.00,,,0.00,Wunderground v.1.15,2013-08-07 08:25:00,
2013-08-07 04:30:00,69.0,69.0,30.02,West,276,0.0,0.0,100,0.00,,,0.00,Wunderground v.1.15,2013-08-07 08:30:00,
2013-08-07 04:35:00,69.0,69.0,30.02,West,276,0.0,0.0,100,0.00,,,0.00,Wunderground v.1.15,2013-08-07 08:35:00,
2013-08-07 04:45:00,69.0,69.0,30.02,West,276,0.0,0.0,100,0.00,,,0.00,Wunderground v.1.15,2013-08-07 08:45:00,
2013-08-07 04:50:00,69.0,69.0,30.02,West,276,0.0,0.0,100,0.00,,,0.00,Wunderground v.1.15,2013-08-07 08:50:00,
2013-08-07 04:55:00,69.0,69.0,30.02,West,276,0.0,0.0,100,0.00,,,0.00,Wunderground v.1.15,2013-08-07 08:55:00,
2013-08-07 05:05:00,68.9,68.9,30.02,West,276,0.0,0.0,100,0.00,,,0.00,Wunderground v.1.15,2013-08-07 09:05:00,
2013-08-07 05:10:00,68.9,68.9,30.03,West,276,0.0,0.0,100,0.00,,,0.00,Wunderground v.1.15,2013-08-07 09:10:00,
2013-08-07 05:15:00,68.9,68.9,30.03,West,276,0.0,0.0,100,0.00,,,0.00,Wunderground v.1.15,2013-08-07 09:15:00,
2013-08-07 05:25:00,68.8,68.8,30.03,West,276,0.0,0.0,100,0.00,,,0.00,Wunderground v.1.15,2013-08-07 09:25:00,
2013-08-07 05:30:00,68.8,68.8,30.03,West,276,0.0,0.0,100,0.00,,,0.00,Wunderground v.1.15,2013-08-07 09:30:00,
2013-08-07 05:35:00,68.8,68.8,30.03,West,276,0.0,0.0,100,0.00,,,0.00,Wunderground v.1.15,2013-08-07 09:35:00,
2013-08-07 05:45:00,68.7,68.7,30.03,West,276,0.0,0.0,100,0.00,,,0.00,Wunderground v.1.15,2013-08-07 09:45:00,
2013-08-07 05:50:00,68.7,68.7,30.03,West,275,0.0,0.0,100,0.00,,,0.00,Wunderground v.1.15,2013-08-07 09:50:00,
2013-08-07 06:00:00,68.6,68.6,30.03,West,276,0.0,0.0,100,0.00,,,0.00,Wunderground v.1.15,2013-08-07 10:00:00,
2013-08-07 06:05:00,68.6,68.6,30.03,West,276,0.0,0.0,100,0.00,,,0.00,Wunderground v.1.15,2013-08-07 10:05:00,
2013-08-07 06:10:00,68.6,68.6,30.03,West,276,0.0,0.0,100,0.00,,,0.00,Wunderground v.1.15,2013-08-07 10:10:00,
2013-08-07 06:15:00,68.5,68.5,30.03,West,276,0.0,0.0,100,0.00,,,0.00,Wunderground v.1.15,2013-08-07 10:15:00,
2013-08-07 06:25:00,68.4,68.4,30.04,West,276,0.0,0.0,100,0.00,,,0.00,Wunderground v.1.15,2013-08-07 10:25:00,
2013-08-07 06:30:00,68.3,68.3,30.04,West,276,0.0,0.0,100,0.00,,,0.00,Wunderground v.1.15,2013-08-07 10:30:00,
2013-08-07 06:40:00,68.3,68.3,30.04,West,276,0.0,0.0,100,0.00,,,0.00,Wunderground v.1.15,2013-08-07 10:40:00,
2013-08-07 06:45:00,68.3,68.3,30.04,West,276,0.0,0.0,100,0.00,,,0.00,Wunderground v.1.15,2013-08-07 10:45:00,
2013-08-07 06:50:00,68.3,68.3,30.05,West,275,0.0,0.0,100,0.00,,,0.00,Wunderground v.1.15,2013-08-07 10:50:00,
2013-08-07 07:00:00,68.4,68.4,30.04,West,276,0.0,0.0,100,0.00,,,0.00,Wunderground v.1.15,2013-08-07 11:00:00,
2013-08-07 07:05:00,68.4,68.4,30.05,West,276,0.0,0.0,100,0.00,,,0.00,Wunderground v.1.15,2013-08-07 11:05:00,
2013-08-07 07:10:00,68.5,68.5,30.05,West,276,0.0,0.0,100,0.00,,,0.00,Wunderground v.1.15,2013-08-07 11:10:00,
2013-08-07 07:20:00,68.5,68.5,30.05,West,276,0.0,0.0,100,0.00,,,0.00,Wunderground v.1.15,2013-08-07 11:20:00,
2013-08-07 07:25:00,68.6,68.6,30.05,West,276,0.0,0.0,100,0.00,,,0.00,Wunderground v.1.15,2013-08-07 11:25:00,
2013-08-07 07:30:00,68.7,68.7,30.04,West,276,0.0,0.0,100,0.00,,,0.00,Wunderground v.1.15,2013-08-07 11:30:00,
2013-08-07 07:40:00,68.9,68.9,30.05,West,276,0.0,0.0,100,0.00,,,0.00,Wunderground v.1.15,2013-08-07 11:40:00,
2013-08-07 07:45:00,69.1,69.1,30.05,West,276,0.0,0.0,100,0.00,,,0.00,Wunderground v.1.15,2013-08-07 11:45:00,
2013-08-07 07:50:00,69.1,69.1,30.05,West,276,0.0,0.0,100,0.00,,,0.00,Wunderground v.1.15,2013-08-07 11:50:00,
2013-08-07 08:00:00,69.4,69.4,30.05,West,276,0.0,0.0,100,0.00,,,0.00,Wunderground v.1.15,2013-08-07 12:00:00,
2013-08-07 08:05:00,69.6,69.6,30.04,West,276,0.0,0.0,100,0.00,,,0.00,Wunderground v.1.15,2013-08-07 12:05:00,
2013-08-07 08:10:00,69.7,69.7,30.05,West,276,0.0,0.0,100,0.00,,,0.00,Wunderground v.1.15,2013-08-07 12:10:00,
2013-08-07 08:20:00,70.0,70.0,30.05,West,276,0.0,0.0,100,0.00,,,0.00,Wunderground v.1.15,2013-08-07 12:20:00,
2013-08-07 08:25:00,70.2,70.2,30.05,West,276,0.0,0.0,100,0.00,,,0.00,Wunderground v.1.15,2013-08-07 12:25:00,
2013-08-07 08:30:00,70.4,70.4,30.05,West,276,0.0,0.0,100,0.00,,,0.00,Wunderground v.1.15,2013-08-07 12:30:00,
2013-08-07 08:40:00,70.6,70.6,30.05,West,276,0.0,0.0,100,0.00,,,0.00,Wunderground v.1.15,2013-08-07 12:40:00,
2013-08-07 08:45:00,70.7,70.7,30.06,West,276,0.0,0.0,100,0.00,,,0.00,Wunderground v.1.15,2013-08-07 12:45:00,
2013-08-07 08:50:00,70.8,70.8,30.06,West,275,0.0,0.0,100,0.00,,,0.00,Wunderground v.1.15,2013-08-07 12:50:00,
2013-08-07 09:00:00,71.2,71.2,30.06,West,276,0.0,0.0,100,0.00,,,0.00,Wunderground v.1.15,2013-08-07 13:00:00,
2013-08-07 09:05:00,71.2,71.2,30.06,West,276,0.0,0.0,100,0.00,,,0.00,Wunderground v.1.15,2013-08-07 13:05:00,
2013-08-07 09:10:00,71.3,71.3,30.06,West,276,0.0,0.0,100,0.00,,,0.00,Wunderground v.1.15,2013-08-07 13:10:00,
2013-08-07 09:20:00,71.8,71.5,30.05,West,276,0.0,0.0,99,0.00,,,0.00,Wunderground v.1.15,2013-08-07 13:20:00,
2013-08-07 09:25:00,72.1,71.8,30.06,WNW,292,0.0,0.0,99,0.00,,,0.00,Wunderground v.1.15,2013-08-07 13:25:00,
2013-08-07 09:30:00,72.3,71.1,30.06,WNW,292,0.0,0.0,96,0.00,,,0.00,Wunderground v.1.15,2013-08-07 13:30:00,
2013-08-07 09:40:00,72.8,71.6,30.06,WNW,292,0.0,0.0,96,0.00,,,0.00,Wunderground v.1.15,2013-08-07 13:40:00,
2013-08-07 09:45:00,72.9,71.7,30.06,WNW,292,0.0,0.0,96,0.00,,,0.00,Wunderground v.1.15,2013-08-07 13:45:00,
2013-08-07 09:50:00,73.1,71.6,30.06,WNW,292,0.0,0.0,95,0.00,,,0.00,Wunderground v.1.15,2013-08-07 13:50:00,
2013-08-07 10:00:00,73.5,71.4,30.06,WNW,292,0.0,0.0,93,0.00,,,0.00,Wunderground v.1.15,2013-08-07 14:00:00,
2013-08-07 10:05:00,73.8,71.3,30.06,NE,44,0.0,1.0,92,0.00,,,0.00,Wunderground v.1.15,2013-08-07 14:05:00,
2013-08-07 10:10:00,74.2,71.4,30.06,NE,44,0.0,1.0,91,0.00,,,0.00,Wunderground v.1.15,2013-08-07 14:10:00,
2013-08-07 10:20:00,75.3,72.2,30.06,SE,136,0.0,0.0,90,0.00,,,0.00,Wunderground v.1.15,2013-08-07 14:20:00,
2013-08-07 10:25:00,75.8,72.7,30.06,SSE,156,0.0,0.0,90,0.00,,,0.00,Wunderground v.1.15,2013-08-07 14:25:00,
2013-08-07 10:30:00,75.9,72.8,30.06,ESE,119,0.0,2.0,90,0.00,,,0.00,Wunderground v.1.15,2013-08-07 14:30:00,
2013-08-07 10:40:00,76.1,73.0,30.06,ENE,58,1.0,1.0,90,0.00,,,0.00,Wunderground v.1.15,2013-08-07 14:40:00,
2013-08-07 10:45:00,76.6,73.4,30.05,ENE,58,0.0,1.0,90,0.00,,,0.00,Wunderground v.1.15,2013-08-07 14:45:00,
2013-08-07 10:55:00,77.5,73.7,30.05,East,93,0.0,0.0,88,0.00,,,0.00,Wunderground v.1.15,2013-08-07 14:55:00,
2013-08-07 11:00:00,78.1,73.9,30.05,WNW,282,0.0,2.0,87,0.00,,,0.00,Wunderground v.1.15,2013-08-07 15:00:00,
2013-08-07 11:05:00,78.8,73.9,30.05,East,89,1.0,2.0,85,0.00,,,0.00,Wunderground v.1.15,2013-08-07 15:05:00,
2013-08-07 11:10:00,78.9,73.7,30.05,East,89,0.0,0.0,84,0.00,,,0.00,Wunderground v.1.15,2013-08-07 15:10:00,
2013-08-07 11:20:00,79.1,73.1,30.05,South,173,0.0,0.0,82,0.00,,,0.00,Wunderground v.1.15,2013-08-07 15:20:00,
2013-08-07 11:25:00,79.3,72.6,30.05,ESE,119,0.0,1.0,80,0.00,,,0.00,Wunderground v.1.15,2013-08-07 15:25:00,
2013-08-07 11:35:00,79.8,74.2,30.05,ENE,71,1.0,1.0,83,0.00,,,0.00,Wunderground v.1.15,2013-08-07 15:35:00,
2013-08-07 11:40:00,79.8,73.1,30.05,ENE,72,1.0,1.0,80,0.00,,,0.00,Wunderground v.1.15,2013-08-07 15:40:00,
2013-08-07 11:45:00,80.3,73.9,30.05,ENE,59,1.0,1.0,81,0.00,,,0.00,Wunderground v.1.15,2013-08-07 15:45:00,
2013-08-07 11:50:00,81.0,74.2,30.06,North,5,1.0,1.0,80,0.00,,,0.00,Wunderground v.1.15,2013-08-07 15:50:00,
2013-08-07 12:00:00,81.0,74.2,30.05,ENE,67,1.0,1.0,80,0.00,,,0.00,Wunderground v.1.15,2013-08-07 16:00:00,
2013-08-07 12:05:00,80.8,74.4,30.05,East,90,1.0,1.0,81,0.00,,,0.00,Wunderground v.1.15,2013-08-07 16:05:00,
2013-08-07 12:15:00,81.2,72.9,30.05,East,84,0.0,1.0,76,0.00,,,0.00,Wunderground v.1.15,2013-08-07 16:15:00,
2013-08-07 12:20:00,81.5,74.0,30.05,East,84,1.0,1.0,78,0.00,,,0.00,Wunderground v.1.15,2013-08-07 16:20:00,
2013-08-07 12:25:00,81.7,73.4,30.05,North,5,1.0,1.0,76,0.00,,,0.00,Wunderground v.1.15,2013-08-07 16:25:00,
2013-08-07 12:35:00,82.0,72.1,30.05,ENE,67,1.0,1.0,72,0.00,,,0.00,Wunderground v.1.15,2013-08-07 16:35:00,
2013-08-07 12:40:00,82.4,72.0,30.05,NE,52,1.0,1.0,71,0.00,,,0.00,Wunderground v.1.15,2013-08-07 16:40:00,
2013-08-07 12:45:00,82.7,72.3,30.05,NE,44,1.0,1.0,71,0.00,,,0.00,Wunderground v.1.15,2013-08-07 16:45:00,
2013-08-07 12:55:00,82.9,73.8,30.05,NE,49,1.0,1.0,74,0.00,,,0.00,Wunderground v.1.15,2013-08-07 16:55:00,
2013-08-07 13:00:00,83.3,71.6,30.05,SW,236,0.0,0.0,68,0.00,,,0.00,Wunderground v.1.15,2013-08-07 17:00:00,
2013-08-07 13:05:00,83.5,72.7,30.04,NNW,344,0.0,0.0,70,0.00,,,0.00,Wunderground v.1.15,2013-08-07 17:05:00,
2013-08-07 13:15:00,83.0,73.0,30.04,NNE,16,1.0,1.0,72,0.00,,,0.00,Wunderground v.1.15,2013-08-07 17:15:00,
2013-08-07 13:20:00,83.4,73.8,30.03,NE,51,0.0,0.0,73,0.00,,,0.00,Wunderground v.1.15,2013-08-07 17:20:00,
2013-08-07 13:25:00,83.6,73.2,30.03,NE,51,1.0,2.0,71,0.00,,,0.00,Wunderground v.1.15,2013-08-07 17:25:00,
2013-08-07 13:30:00,83.4,72.6,30.03,SW,221,1.0,1.0,70,0.00,,,0.00,Wunderground v.1.15,2013-08-07 17:30:00,
2013-08-07 13:40:00,83.1,73.1,30.02,WSW,248,0.0,1.0,72,0.00,,,0.00,Wunderground v.1.15,2013-08-07 17:40:00,
2013-08-07 13:45:00,82.5,71.7,30.02,WSW,248,1.0,1.0,70,0.00,,,0.00,Wunderground v.1.15,2013-08-07 17:45:00,
2013-08-07 13:55:00,82.6,73.9,30.02,South,171,0.0,1.0,75,0.00,,,0.00,Wunderground v.1.15,2013-08-07 17:55:00,
2013-08-07 14:00:00,82.8,73.3,30.02,West,263,1.0,2.0,73,0.00,,,0.00,Wunderground v.1.15,2013-08-07 18:00:00,
2013-08-07 14:05:00,83.2,72.8,30.02,ENE,61,1.0,2.0,71,0.00,,,0.00,Wunderground v.1.15,2013-08-07 18:05:00,
2013-08-07 14:15:00,82.5,74.6,30.02,ENE,61,0.0,0.0,77,0.00,,,0.00,Wunderground v.1.15,2013-08-07 18:15:00,
2013-08-07 14:20:00,82.4,72.9,30.02,ESE,108,1.0,1.0,73,0.00,,,0.00,Wunderground v.1.15,2013-08-07 18:20:00,
2013-08-07 14:25:00,82.2,73.1,30.02,ENE,64,1.0,1.0,74,0.00,,,0.00,Wunderground v.1.15,2013-08-07 18:25:00,
2013-08-07 14:35:00,82.1,73.8,30.01,ESE,119,0.0,2.0,76,0.00,,,0.00,Wunderground v.1.15,2013-08-07 18:35:00,
2013-08-07 14:40:00,82.2,73.1,30.01,East,94,0.0,0.0,74,0.00,,,0.00,Wunderground v.1.15,2013-08-07 18:40:00,
2013-08-07 14:45:00,82.3,75.5,30.01,East,94,0.0,0.0,80,0.00,,,0.00,Wunderground v.1.15,2013-08-07 18:45:00,
2013-08-07 14:55:00,82.2,73.9,30.01,East,94,0.0,0.0,76,0.00,,,0.00,Wunderground v.1.15,2013-08-07 18:55:00,
2013-08-07 15:00:00,82.1,74.2,30.01,East,94,0.0,0.0,77,0.00,,,0.00,Wunderground v.1.15,2013-08-07 19:00:00,
2013-08-07 15:05:00,82.0,74.8,30.01,East,94,0.0,0.0,79,0.00,,,0.00,Wunderground v.1.15,2013-08-07 19:05:00,
2013-08-07 15:15:00,81.8,75.0,30.01,ENE,75,0.0,0.0,80,0.00,,,0.00,Wunderground v.1.15,2013-08-07 19:15:00,
2013-08-07 15:20:00,81.9,73.2,30.01,ENE,75,0.0,0.0,75,0.00,,,0.00,Wunderground v.1.15,2013-08-07 19:20:00,
2013-08-07 15:25:00,82.3,74.7,30.00,ENE,75,0.0,0.0,78,0.00,,,0.00,Wunderground v.1.15,2013-08-07 19:25:00,
2013-08-07 15:35:00,82.3,73.6,30.00,ENE,75,0.0,0.0,75,0.00,,,0.00,Wunderground v.1.15,2013-08-07 19:35:00,
2013-08-07 15:40:00,82.2,75.0,30.00,ENE,75,0.0,0.0,79,0.00,,,0.00,Wunderground v.1.15,2013-08-07 19:40:00,
2013-08-07 15:50:00,82.3,74.4,30.00,NE,41,0.0,1.0,77,0.00,,,0.00,Wunderground v.1.15,2013-08-07 19:50:00,
2013-08-07 15:55:00,82.4,75.6,30.00,NE,41,0.0,1.0,80,0.00,,,0.00,Wunderground v.1.15,2013-08-07 19:55:00,
2013-08-07 16:00:00,82.1,73.8,29.99,NE,42,0.0,0.0,76,0.00,,,0.00,Wunderground v.1.15,2013-08-07 20:00:00,
2013-08-07 16:05:00,82.0,73.7,29.99,NE,44,0.0,0.0,76,0.00,,,0.00,Wunderground v.1.15,2013-08-07 20:05:00,
2013-08-07 16:15:00,82.7,74.0,29.99,NE,38,1.0,2.0,75,0.00,,,0.00,Wunderground v.1.15,2013-08-07 20:15:00,
2013-08-07 16:20:00,83.0,75.4,29.99,ENE,78,1.0,1.0,78,0.00,,,0.00,Wunderground v.1.15,2013-08-07 20:20:00,
2013-08-07 16:30:00,83.4,75.0,29.99,ENE,78,0.0,0.0,76,0.00,,,0.00,Wunderground v.1.15,2013-08-07 20:30:00,
2013-08-07 16:35:00,83.5,72.3,29.99,East,89,0.0,0.0,69,0.00,,,0.00,Wunderground v.1.15,2013-08-07 20:35:00,
2013-08-07 16:40:00,83.6,74.0,29.99,East,89,0.0,0.0,73,0.00,,,0.00,Wunderground v.1.15,2013-08-07 20:40:00,
2013-08-07 16:50:00,82.9,74.2,29.99,East,89,0.0,0.0,75,0.00,,,0.00,Wunderground v.1.15,2013-08-07 20:50:00,
2013-08-07 16:55:00,83.0,74.6,29.99,East,89,0.0,0.0,76,0.00,,,0.00,Wunderground v.1.15,2013-08-07 20:55:00,
2013-08-07 17:00:00,83.2,74.0,29.99,East,97,0.0,0.0,74,0.00,,,0.00,Wunderground v.1.15,2013-08-07 21:00:00,
2013-08-07 17:10:00,83.2,75.6,29.99,East,97,0.0,0.0,78,0.00,,,0.00,Wunderground v.1.15,2013-08-07 21:10:00,
2013-08-07 17:15:00,83.2,74.8,29.99,East,97,0.0,0.0,76,0.00,,,0.00,Wunderground v.1.15,2013-08-07 21:15:00,
2013-08-07 17:20:00,83.0,75.4,29.99,East,97,0.0,0.0,78,0.00,,,0.00,Wunderground v.1.15,2013-08-07 21:20:00,
2013-08-07 17:30:00,83.0,75.0,29.99,East,97,0.0,0.0,77,0.00,,,0.00,Wunderground v.1.15,2013-08-07 21:30:00,
2013-08-07 17:35:00,83.0,74.6,29.98,East,97,0.0,0.0,76,0.00,,,0.00,Wunderground v.1.15,2013-08-07 21:35:00,
2013-08-07 17:40:00,83.0,75.4,29.98,East,97,0.0,1.0,78,0.00,,,0.00,Wunderground v.1.15,2013-08-07 21:40:00,
2013-08-07 17:50:00,82.7,73.2,29.98,East,97,0.0,0.0,73,0.00,,,0.00,Wunderground v.1.15,2013-08-07 21:50:00,
2013-08-07 17:55:00,82.7,74.8,29.99,East,97,0.0,0.0,77,0.00,,,0.00,Wunderground v.1.15,2013-08-07 21:55:00,
2013-08-07 18:00:00,82.7,74.4,29.99,East,97,0.0,0.0,76,0.00,,,0.00,Wunderground v.1.15,2013-08-07 22:00:00,
2013-08-07 18:10:00,82.4,74.5,29.99,East,97,0.0,0.0,77,0.00,,,0.00,Wunderground v.1.15,2013-08-07 22:10:00,
2013-08-07 18:15:00,82.5,74.9,29.99,East,97,0.0,1.0,78,0.00,,,0.00,Wunderground v.1.15,2013-08-07 22:15:00,
2013-08-07 18:20:00,82.5,75.3,29.99,East,97,0.0,0.0,79,0.00,,,0.00,Wunderground v.1.15,2013-08-07 22:20:00,
2013-08-07 18:30:00,81.9,75.1,29.98,East,97,0.0,0.0,80,0.00,,,0.00,Wunderground v.1.15,2013-08-07 22:30:00,
2013-08-07 18:35:00,81.7,75.3,29.98,East,97,0.0,0.0,81,0.00,,,0.00,Wunderground v.1.15,2013-08-07 22:35:00,
2013-08-07 18:40:00,81.5,75.1,29.98,East,97,0.0,0.0,81,0.00,,,0.00,Wunderground v.1.15,2013-08-07 22:40:00,
2013-08-07 18:50:00,81.2,75.5,29.99,East,97,0.0,0.0,83,0.00,,,0.00,Wunderground v.1.15,2013-08-07 22:50:00,
2013-08-07 18:55:00,81.0,74.6,29.98,East,97,0.0,0.0,81,0.00,,,0.00,Wunderground v.1.15,2013-08-07 22:55:00,
2013-08-07 19:00:00,80.6,75.0,29.98,East,98,0.0,0.0,83,0.00,,,0.00,Wunderground v.1.15,2013-08-07 23:00:00,
2013-08-07 19:10:00,79.9,74.6,29.98,ENE,60,0.0,0.0,84,0.00,,,0.00,Wunderground v.1.15,2013-08-07 23:10:00,
2013-08-07 19:15:00,79.6,74.7,29.98,East,96,0.0,0.0,85,0.00,,,0.00,Wunderground v.1.15,2013-08-07 23:15:00,
2013-08-07 19:20:00,79.2,74.3,29.98,SSW,194,0.0,0.0,85,0.00,,,0.00,Wunderground v.1.15,2013-08-07 23:20:00,
2013-08-07 19:30:00,78.7,74.5,29.99,South,185,0.0,0.0,87,0.00,,,0.00,Wunderground v.1.15,2013-08-07 23:30:00,
2013-08-07 19:35:00,78.6,74.4,29.98,South,185,0.0,0.0,87,0.00,,,0.00,Wunderground v.1.15,2013-08-07 23:35:00,
2013-08-07 19:40:00,78.5,74.6,29.99,SSW,196,0.0,0.0,88,0.00,,,0.00,Wunderground v.1.15,2013-08-07 23:40:00,
2013-08-07 19:50:00,78.0,74.8,29.99,SSW,200,0.0,0.0,90,0.00,,,0.00,Wunderground v.1.15,2013-08-07 23:50:00,
2013-08-07 19:55:00,78.0,75.2,29.99,SSW,200,0.0,0.0,91,0.00,,,0.00,Wunderground v.1.15,2013-08-07 23:55:00,
2013-08-07 20:00:00,77.8,75.0,29.99,SSW,200,0.0,0.0,91,0.00,,,0.00,Wunderground v.1.15,2013-08-08 00:00:00,
2013-08-07 20:10:00,77.5,75.0,29.99,SSW,200,0.0,0.0,92,0.00,,,0.00,Wunderground v.1.15,2013-08-08 00:10:00,
2013-08-07 20:15:00,77.3,74.8,29.99,SSW,200,0.0,0.0,92,0.00,,,0.00,Wunderground v.1.15,2013-08-08 00:15:00,
2013-08-07 20:20:00,77.2,74.7,29.99,SSW,200,0.0,0.0,92,0.00,,,0.00,Wunderground v.1.15,2013-08-08 00:20:00,
2013-08-07 20:30:00,76.9,75.0,29.99,SSW,200,0.0,0.0,94,0.00,,,0.00,Wunderground v.1.15,2013-08-08 00:30:00,
2013-08-07 20:35:00,76.6,74.7,29.99,SSW,200,0.0,0.0,94,0.00,,,0.00,Wunderground v.1.15,2013-08-08 00:35:00,
2013-08-07 20:40:00,76.5,74.6,29.99,SSW,200,0.0,0.0,94,0.00,,,0.00,Wunderground v.1.15,2013-08-08 00:40:00,
2013-08-07 20:50:00,76.3,74.8,30.00,SSW,200,0.0,0.0,95,0.00,,,0.00,Wunderground v.1.15,2013-08-08 00:50:00,
2013-08-07 20:55:00,76.2,74.7,29.99,SSW,200,0.0,0.0,95,0.00,,,0.00,Wunderground v.1.15,2013-08-08 00:55:00,
2013-08-07 21:00:00,76.0,74.5,29.99,SSW,200,0.0,0.0,95,0.00,,,0.00,Wunderground v.1.15,2013-08-08 01:00:00,
2013-08-07 21:10:00,75.8,74.6,30.00,SSW,200,0.0,0.0,96,0.00,,,0.00,Wunderground v.1.15,2013-08-08 01:10:00,
2013-08-07 21:15:00,75.7,74.5,30.00,SSW,200,0.0,0.0,96,0.00,,,0.00,Wunderground v.1.15,2013-08-08 01:15:00,
2013-08-07 21:25:00,75.4,74.5,30.00,SSW,200,0.0,0.0,97,0.00,,,0.00,Wunderground v.1.15,2013-08-08 01:25:00,
2013-08-07 21:30:00,75.3,74.4,30.00,SSW,200,0.0,0.0,97,0.00,,,0.00,Wunderground v.1.15,2013-08-08 01:30:00,
2013-08-07 21:35:00,75.2,74.3,30.00,SSW,200,0.0,0.0,97,0.00,,,0.00,Wunderground v.1.15,2013-08-08 01:35:00,
2013-08-07 21:40:00,75.2,74.3,30.00,SSW,200,0.0,0.0,97,0.00,,,0.00,Wunderground v.1.15,2013-08-08 01:40:00,
2013-08-07 21:50:00,74.9,74.0,30.00,SSW,200,0.0,0.0,97,0.00,,,0.00,Wunderground v.1.15,2013-08-08 01:50:00,
2013-08-07 21:55:00,74.8,73.9,30.00,SSW,200,0.0,0.0,97,0.00,,,0.00,Wunderground v.1.15,2013-08-08 01:55:00,
2013-08-07 22:05:00,74.8,73.9,30.01,SSW,200,0.0,0.0,97,0.00,,,0.00,Wunderground v.1.15,2013-08-08 02:05:00,
2013-08-07 22:10:00,74.7,73.8,30.01,SSW,200,0.0,0.0,97,0.00,,,0.00,Wunderground v.1.15,2013-08-08 02:10:00,
2013-08-07 22:15:00,74.6,73.7,30.01,SSW,200,0.0,0.0,97,0.00,,,0.00,Wunderground v.1.15,2013-08-08 02:15:00,
2013-08-07 22:25:00,74.4,73.5,30.01,SSW,200,0.0,0.0,97,0.00,,,0.00,Wunderground v.1.15,2013-08-08 02:25:00,
2013-08-07 22:30:00,74.3,73.4,30.01,SSW,200,0.0,0.0,97,0.00,,,0.00,Wunderground v.1.15,2013-08-08 02:30:00,
2013-08-07 22:35:00,74.2,73.3,30.01,SSW,200,0.0,0.0,97,0.00,,,0.00,Wunderground v.1.15,2013-08-08 02:35:00,
2013-08-07 22:45:00,73.9,72.7,30.01,SSW,200,0.0,0.0,96,0.00,,,0.00,Wunderground v.1.15,2013-08-08 02:45:00,
2013-08-07 22:50:00,73.9,73.0,30.01,SSW,200,0.0,0.0,97,0.00,,,0.00,Wunderground v.1.15,2013-08-08 02:50:00,
2013-08-07 22:55:00,73.8,72.6,30.01,SSW,200,0.0,0.0,96,0.00,,,0.00,Wunderground v.1.15,2013-08-08 02:55:00,
2013-08-07 23:05:00,73.6,72.4,30.01,SSW,200,0.0,0.0,96,0.00,,,0.00,Wunderground v.1.15,2013-08-08 03:05:00,
2013-08-07 23:10:00,73.5,72.3,30.01,SSW,200,0.0,0.0,96,0.00,,,0.00,Wunderground v.1.15,2013-08-08 03:10:00,
2013-08-07 23:15:00,73.5,72.6,30.01,SSW,200,0.0,0.0,97,0.00,,,0.00,Wunderground v.1.15,2013-08-08 03:15:00,
2013-08-07 23:25:00,73.4,72.5,30.01,SSW,200,0.0,0.0,97,0.00,,,0.00,Wunderground v.1.15,2013-08-08 03:25:00,
2013-08-07 23:30:00,73.4,72.5,30.01,SSW,200,0.0,0.0,97,0.00,,,0.00,Wunderground v.1.15,2013-08-08 03:30:00,
2013-08-07 23:35:00,73.3,72.1,30.01,SSW,200,0.0,0.0,96,0.00,,,0.00,Wunderground v.1.15,2013-08-08 03:35:00,
2013-08-07 23:45:00,73.3,72.4,30.01,SSW,200,0.0,0.0,97,0.00,,,0.00,Wunderground v.1.15,2013-08-08 03:45:00,
2013-08-07 23:50:00,73.2,72.3,30.01,SSW,200,0.0,0.0,97,0.00,,,0.00,Wunderground v.1.15,2013-08-08 03:50:00,
2013-08-07 23:55:00,73.1,72.2,30.01,SSW,200,0.0,0.0,97,0.00,,,0.00,Wunderground v.1.15,2013-08-08 03:55:00,